Tracking 19847 objects as of 15-Sep-2019
HD Live streaming from Space Station
objects crossing your sky now

DMSP 5D-2 F6 DEB

Track DMSP 5D-2 F6 DEB now!
10-day predictions


NORAD ID: 40918
Int'l Code: 1982-118L
Perigee: 575.5 km
Apogee: 766.2 km
Inclination: 98.4 °
Period: 98.0 minutes
Semi major axis: 7041 km
RCS: Unknown
Launch date: December 21, 1982
Source: United States (US)
Launch site: AIR FORCE WESTERN TEST RANGE (AFWTR)

Note: This is SATELLITE DEBRIS
aabbcc
Your satellite tracking list
Your tracking list is empty




NASA's NSSDC Master Catalog

Two Line Element Set (TLE):
1 40918U 82118L   19257.63572576 +.00000141 +00000-0 +30270-4 0  9999
2 40918 098.4435 143.8704 0135413 357.3751 002.6727 14.69159283194301
Source of the keplerian elements: AFSPC